weather.gov     
National Weather Service

Terminal Aerodrome Forecast
NWS Homepage
This page is being discontinued on March 12, 2014.
The same data is available at this site. Please update your bookmarks.
Thank you, and we apologize for the inconvenience.
Please send an email to SR-SRH.Webmaster@noaa.gov with any concerns.


Current Version
Previous Version:    01  02  03  04  05  06  07  08  09  10  11  12  13  14  
[Printable]
511
FTUS41 KCAR 230500
TAFHUL
TAF
KHUL 230534Z 2306/2406 21005KT P6SM SCT250
     FM231500 21013G20KT P6SM SCT050 BKN200
     FM231800 20010G20KT 6SM SHRA VCTS SCT035CB OVC120
      TEMPO 2318/2320 VRB20G45KT 2SM +TSRA OVC025CB
     FM232000 26008KT P6SM VCSH SCT040 BKN080
     FM232200 30012KT P6SM SCT060=


U.S. Dept. of Commerce
NOAA National Weather Service
1325 East West Highway
Silver Spring, MD 20910
E-mail: w-nws.webmaster@noaa.gov
Page last modified: May 16, 2007
NATIONAL WEATHER SERVICE: for Safety, for Work, for Fun - FOR LIFE